Regional Weather Roundup
Issued by NWS

Home | Current Version | Previous Version | Text Only | Print | Product List | Glossary Off
Versions: 1 2 3 4 5 6 7 8 9 10 11 12 13 14 15 16 17 18 19 20 21 22 23 24 25 26 27 28 29 30 31 32 33 34 35 36 37 38 39 40 41 42 43 44 45 46 47 48 49 50

000
ASUS45 KBOU 250407
RWRCO

WEATHER ROUNDUP FOR COLORADO
NATIONAL WEATHER SERVICE DENVER/BOULDER CO
1000 PM MDT WED AUG 24 2016

NOTE: "FAIR" INDICATES FEW OR NO CLOUDS BELOW 12000 FEET WITH NO
SIGNIFICANT WEATHER AND/OR OBSTRUCTIONS TO VISIBILITY.

COZ001>005-013-030-031-250500-
...NORTHWEST COLORADO...

CITY           SKY/WX    TMP DP  RH WIND       PRES   REMARKS
CRAIG          FAIR      64  34  32 S12       30.18R
HAYDEN         FAIR      61  34  36 E5        30.22R
MEEKER         CLOUDY    59  44  57 N8        30.22R
MOUNT WERNER   NOT AVBL
STEAMBOAT SPGS FAIR      62  35  37 E5        30.24R
WALDEN         MOCLDY    43  36  75 SE6       30.35R
$$

COZ006>008-011-250500-
...WEST CENTRAL VALLEYS...

CITY           SKY/WX    TMP DP  RH WIND       PRES   REMARKS
GRAND JUNCTION LGT RAIN  65  49  56 E12       30.13R
MONTROSE       CLOUDY    64  44  48 NW14G30   30.24R HAZE
EAGLE          FAIR      63  36  36 NE6       30.26R
RIFLE          FAIR      63  50  62 CALM      30.18R
DELTA          FAIR      67  52  59 SW7       30.19S
NUCLA          FAIR      63  45  51 E9        30.25R
$$

COZ017>023-064>068-250500-
...SOUTHWEST COLORADO...

CITY           SKY/WX    TMP DP  RH WIND       PRES   REMARKS
DURANGO        FAIR      55  47  74 VRB3      30.28R
CORTEZ         FAIR      59  51  75 NE5       30.22R
PAGOSA SPRINGS FAIR      51  48  89 CALM      30.36R
TELLURIDE      CLOUDY    51  40  64 SE9       30.44S
WOLF CREEK PAS FAIR      37  37 100 CALM      30.61R FOG
$$

COZ009-010-012-014-032>034-037-058>063-250500-
...CENTRAL COLORADO...

CITY           SKY/WX    TMP DP  RH WIND       PRES   REMARKS
ASPEN          CLOUDY    52  39  61 SW7       30.32R
BUENA VISTA    FAIR      51  46  84 E6        30.40R
COPPER MTN     MOCLDY    45  32  61 SW9       30.58R
BERTHOUD PASS  HAZE      32  19  59 E13       30.60R VSB 1/4 WCI  22
COTTONWOOD PAS FAIR      48  43  81 CALM      30.48S
GUNNISON       FAIR      54  37  54 N8        30.35R
KREMMLING      CLOUDY    54  43  66 SE6       30.32R
LEADVILLE      MOCLDY    43  41  93 CALM      30.46R
MONARCH PASS   FOG       37  36  93 E10       30.67S VSB<1/4
SALIDA         FAIR      52  49  87 SE6       30.45R
SUNLIGHT       FAIR      46  34  61 CALM      30.53R
WILKERSON PASS FAIR      37  36  93 CALM      30.58R
$$

COZ069>075-250500-
...SAN LUIS VALLEY/SANGRE DE CRISTO MOUNTAINS...

CITY           SKY/WX    TMP DP  RH WIND       PRES   REMARKS
ALAMOSA        FAIR      52  46  80 NE15G24   30.35R
LA VETA PASS   FAIR      43  41  93 NW3       30.50R
SAGUACHE       FAIR      50  46  87 CALM      30.38R
$$

COZ035-036-038>040-250500-
...NORTHERN COLORADO FRONT RANGE...

CITY           SKY/WX    TMP DP  RH WIND       PRES   REMARKS
DENVER INTL AP CLOUDY    58  53  84 CALM      30.26F
DMNS CITY PARK   N/A     56  54  92 NE1       30.26S
AURORA         MOCLDY    57  53  86 S5        30.27F
FRONT RANGE AP NOT AVBL
ERIE MUNI ARPT FAIR      56  54  92 SW3       30.25F
BOULDER MUN AP FAIR      57  54  88 W8        30.25F
CENTENNIAL     MOCLDY    58  48  69 S5        30.28F
BROOMFIELD     MOCLDY    57  50  77 W5        30.28F
FORT COLLINS   FAIR      57  52  82 SW9       30.23F
LONGMONT       FAIR      58  53  83 CALM      30.27S
$$

COZ041-046-047-076>085-087-088-250500-
...PIKES PEAK/PALMER DIVIDE AND SOUTHERN FOOTHILLS...

CITY           SKY/WX    TMP DP  RH WIND       PRES   REMARKS
COLO. SPRINGS  MOCLDY    57  47  69 E6        30.30F
A. F. ACADEMY  FAIR      52  49  89 N10       30.31R
SCHRIEVER AFB  NOT AVBL
ELLICOTT       NOT AVBL
FALCON         FAIR      53  44  72 CALM      30.34S
FORT CARSON    NOT AVBL
LIMON          FAIR      54  35  48 SE5       30.28S
MONUMENT HILL  FAIR      50  43  76 CALM      30.36S
TRINIDAD       FAIR      56  53  90 W5        30.28S
$$

COZ042>045-048>051-090-091-250500-
...NORTHEAST COLORADO...

CITY           SKY/WX    TMP DP  RH WIND       PRES   REMARKS
GREELEY ARPT   FAIR      55  52  88 CALM      30.24R
AKRON          FAIR      58  38  47 SE8       30.24S
BURLINGTON     FAIR      57  44  62 N3        30.23S
WRAY           FAIR      63  41  45 CALM      30.22S
STERLING       FAIR      61  41  48 S3        30.20F
HOLYOKE        FAIR      61  48  63 CALM      30.21S
FORT MORGAN    MOCLDY    58  41  52 NE5       30.24S
$$

COZ086-089-092>099-250500-
...SOUTHEAST COLORADO...

CITY           SKY/WX    TMP DP  RH WIND       PRES   REMARKS
PUEBLO         FAIR      64  54  69 NW5       30.22S
LA JUNTA       MOCLDY    67  43  41 E8        30.22R
LAMAR          FAIR      64  44  48 N6        30.18R
SPRINGFIELD      N/A     59  56  89 N12       30.21F
$$



USA.gov is the U.S. government's official web portal to all federal, state and local government web resources and services.